Highspire, PA

2:08 PM EDT on August 25, 2016 (GMT -0400)
Harrisburg International

Weather History for KMDT - July, 2014

Change the Weather History Date:

Tuesday, July 22, 2014

  Actual Average Record
Temperature  
Mean Temperature 80 °F 76 °F  
Max Temperature 88 °F 86 °F 103 °F (2011)
Min Temperature 71 °F 67 °F 50 °F (1890)
Degree Days  
Heating Degree Days 0 0  
Month to date heating degree days 0 0  
Since 1 June heating degree days 1 18  
Since 1 July heating degree days 0 0  
Cooling Degree Days 15 11  
Month to date cooling degree days 274 240  
Year to date cooling degree days 581 518  
Since 1 June cooling degree days 521 453  
Growing Degree Days 30 (Base 50)    
Moisture  
Dew Point 68 °F    
Average Humidity 69    
Maximum Humidity 84    
Minimum Humidity 53    
Precipitation  
Precipitation 0.00 in 0.15 in 2.34 in (2013)
Month to date precipitation 2.24 3.33  
Year to date precipitation 27.66 22.46  
Sea Level Pressure  
Sea Level Pressure 30.12 in    
Wind  
Wind Speed 6 mph (South)    
Max Wind Speed 14 mph    
Max Gust Speed 18 mph    
Visibility 10 miles    
Events      
T = Trace of Precipitation, MM = Missing Value Source: NWS Daily Summary

Daily Weather History Graph

Daily Weather History Graph

Search for Another Location

Airport or City:

Trip Planner

Search our weather history database for the weather conditions in past years. The results will help you decide how hot, cold, wet, or windy it might be!

Date:

Astronomy

Jul. 22, 2014 Rise Set
Actual Time 5:55 AM EDT 8:30 PM EDT
Civil Twilight 5:24 AM EDT 9:01 PM EDT
Nautical Twilight 4:45 AM EDT 9:40 PM EDT
Astronomical Twilight 4:01 AM EDT 10:24 PM EDT
Moon 2:27 AM EDT (7/22) 5:06 PM EDT (7/22)
Length of Visible Light 15h 37m
Length of Day
14h 34m
Waning Crescent, 16% of the Moon is Illuminated
Jul 22
Waning Crescent
Jul 26
New
Aug 3
First Quarter
Aug 10
Full
Aug 17
Last Quarter

Hourly Weather History & Observations

Time (EDT) Temp. Heat Index Dew Point Humidity Pressure Visibility Wind Dir Wind Speed Gust Speed Precip Events Conditions
12:56 AM 73.9 °F - 66.0 °F 76% 30.17 in 10.0 mi Variable 3.5 mph - N/A   Partly Cloudy
1:56 AM 73.0 °F - 66.0 °F 79% 30.16 in 10.0 mi East 3.5 mph - N/A   Mostly Cloudy
2:56 AM 73.0 °F - 64.9 °F 76% 30.16 in 10.0 mi Calm Calm - N/A   Mostly Cloudy
3:56 AM 73.0 °F - 66.0 °F 79% 30.15 in 10.0 mi SSE 4.6 mph - N/A   Mostly Cloudy
4:56 AM 73.0 °F - 66.0 °F 79% 30.16 in 10.0 mi Calm Calm - N/A   Mostly Cloudy
5:56 AM 71.1 °F - 66.0 °F 84% 30.16 in 10.0 mi SE 4.6 mph - N/A   Scattered Clouds
6:06 AM 71.1 °F - 66.0 °F 84% 30.16 in 10.0 mi SE 4.6 mph - N/A   Mostly Cloudy
6:56 AM 72.0 °F - 66.0 °F 81% 30.18 in 9.0 mi SE 3.5 mph - N/A   Overcast
7:56 AM 73.0 °F - 66.9 °F 81% 30.18 in 10.0 mi South 6.9 mph - N/A   Overcast
8:56 AM 75.0 °F - 68.0 °F 79% 30.18 in 10.0 mi South 4.6 mph - N/A   Overcast
9:56 AM 77.0 °F - 70.0 °F 79% 30.17 in 10.0 mi Variable 3.5 mph - N/A   Overcast
10:43 AM - - - N/A% 30.17 in - Calm Calm - N/A   Unknown
10:56 AM - - - N/A% 30.17 in - Variable 3.5 mph - N/A   Mostly Cloudy
11:56 AM 81.0 °F 84.4 °F 70.0 °F 69% 30.15 in 10.0 mi WNW 4.6 mph - N/A   Overcast
1:56 PM 86.0 °F 90.7 °F 70.0 °F 59% 30.12 in 10.0 mi SW 8.1 mph - N/A   Scattered Clouds
2:56 PM 86.0 °F 90.7 °F 70.0 °F 59% 30.11 in 10.0 mi Variable 4.6 mph - N/A   Scattered Clouds
3:56 PM 88.0 °F 92.1 °F 69.1 °F 53% 30.08 in 10.0 mi WSW 8.1 mph - N/A   Scattered Clouds
4:56 PM 88.0 °F 91.4 °F 68.0 °F 51% 30.06 in 10.0 mi SSW 8.1 mph - N/A   Partly Cloudy
5:56 PM 87.1 °F 91.3 °F 69.1 °F 55% 30.05 in 10.0 mi SSW 9.2 mph - N/A   Scattered Clouds
6:56 PM 84.9 °F 88.8 °F 69.1 °F 59% 30.06 in 10.0 mi SSW 11.5 mph - N/A   Partly Cloudy
7:56 PM 82.9 °F 87.0 °F 70.0 °F 65% 30.06 in 10.0 mi South 5.8 mph - N/A   Partly Cloudy
8:56 PM 80.6 °F 83.9 °F 69.8 °F 70% 30.06 in 10.0 mi South 5.8 mph - N/A   Scattered Clouds
9:56 PM 80.1 °F 82.9 °F 69.1 °F 69% 30.06 in 10.0 mi South 6.9 mph - N/A   Partly Cloudy
10:56 PM 79.0 °F - 69.1 °F 72% 30.07 in 10.0 mi South 8.1 mph - N/A   Partly Cloudy
11:56 PM 78.1 °F - 68.0 °F 71% 30.04 in 10.0 mi SSW 10.4 mph - N/A   Partly Cloudy